Regional Weather Roundup
Issued by NWS Huntsville, AL

Home | Current Version | Previous Version | Text Only | Print | Product List | Glossary On
Versions: 1 2 3 4 5 6 7 8 9 10 11 12 13 14 15 16 17 18 19 20 21 22 23 24 25 26 27 28 29 30 31 32 33 34 35 36 37 38 39 40 41 42 43 44 45 46 47 48 49 50
000
ASUS44 KHUN 191310
RWRHUN

WEATHER ROUNDUP FOR THE TENNESSEE VALLEY
NATIONAL WEATHER SERVICE HUNTSVILLE AL
700 AM CST FRI DEC 19 2014

ALZ001>004-191400-
NORTHWEST ALABAMA

CITY           SKY/WX    TMP DP  RH WIND       PRES   REMARKS
COURTLAND HCN    N/A     37 N/A N/A NE5         N/A  WCI  34
RUSSELLVILLE     N/A     39 N/A N/A MISG        N/A
SHOALS AIRPORT CLOUDY    40  32  73 NE6       30.24R
$$

ALZ005>007-016-191400-
NORTH CENTRAL ALABAMA

CITY           SKY/WX    TMP DP  RH WIND       PRES   REMARKS
CULLMAN AG STN   N/A     34 N/A N/A CALM        N/A
DECATUR AP     CLOUDY    37  33  85 NE3       30.23R
HUNTSVILLE AP  CLOUDY    38  33  82 N7        30.22R WCI  33
HUN NWS/UAH      N/A     37  30  78 N5          N/A  WCI  33
MERIDIANVILLE  CLOUDY    34  30  86 N6        30.22R WCI  29
REDSTONE ARSN  CLOUDY    37  34  87 N6        30.21R WCI  33
VINEMONT AP    CLOUDY    33  33  98 CALM      30.21R FOG
$$

ALZ008>010-191400-
NORTHEAST ALABAMA

CITY           SKY/WX    TMP DP  RH WIND       PRES   REMARKS
ALBERTVILLE    FOG       34  34 100 N3        30.18R VSB 1/4
FORT PAYNE     CLEAR     30  27  86 CALM      30.18S FOG
SCOTTSBORO AP  CLEAR     28  28 100 NE5       30.23R WCI  23
VALLEY HEAD      N/A     27 N/A N/A MISG        N/A
$$

TNZ076-096-097-191400-
SOUTHEASTERN MIDDLE TENNESSEE

CITY           SKY/WX    TMP DP  RH WIND       PRES   REMARKS
TULLAHOMA      CLOUDY    32  30  93 NE3       30.22S
WINCHESTER     CLOUDY    32  32 100 CALM      30.22S
$$

...SURROUNDING SITES...

CITY           SKY/WX    TMP DP  RH WIND       PRES   REMARKS
ATLANTA        CLOUDY    38  32  79 NW6       30.15R WCI  33
ANNISTON       PTCLDY    31  29  92 CALM      30.20R
BIRMINGHAM     CLOUDY    34  32  92 CALM      30.21R
CHATTANOOGA    MOCLDY    31  28  89 CALM      30.22R
CORINTH        CLOUDY    41  36  81 N6        30.23R
DALTON         PTCLDY    34  30  86 N9        30.20R WCI  26
GADSDEN        PTCLDY    28  27  93 W3        30.21R
GOLDEN TRNGL   CLOUDY    43  37  81 CALM      30.20R
HALEYVILLE     CLOUDY    38  33  82 CALM      30.22R
JACKSON TN     CLOUDY    38  32  79 NE6       30.26R WCI  33
LEWISBURG      CLOUDY    33  29  86 CALM      30.24R
MEMPHIS        CLOUDY    42  35  76 NE8       30.24R
MURFREESBORO   CLOUDY    34  30  85 N6        30.25R WCI  29
NASHVILLE      CLOUDY    35  29  78 NE10      30.26R WCI  27
OXFORD MS      CLOUDY    41  37  87 NE5       30.25R
ROME           PTCLDY    34  29  82 NW8       30.18S WCI  27
SAVANNAH       CLOUDY    37  34  87 N3        30.24R
TUPELO         CLOUDY    44  38  79 NE9       30.22R
TUSCALOOSA     CLOUDY    36  35  96 CALM      30.22R
$$

...GULF COAST WEATHER...

CITY           SKY/WX    TMP DP  RH WIND       PRES   REMARKS
GULFPORT       LGT RAIN  51  48  89 NE9       30.12R
PASCAGOULA     RAIN      50  47  89 E5        30.13R
MOBILE         LGT RAIN  51  42  71 NE14      30.13R
GULF SHORES    RAIN      50  44  78 CALM      30.13R
PENSACOLA      LGT RAIN  52  39  61 NE10      30.13R
DESTIN         CLOUDY    55  39  54 NE5       30.13S
PANAMA CITY    PTCLDY    49  39  67 E7        30.14S
APPALACHICOLA  MOCLDY    51  40  65 NE8       30.14R
$$




USA.gov is the U.S. government's official web portal to all federal, state and local government web resources and services.